Regional Weather Roundup
Issued by NWS

Home | Current Version | Previous Version | Graphics & Text | Print | Product List | Glossary On
Versions: 1 2 3 4 5 6 7 8 9 10 11 12 13 14 15 16 17 18 19 20 21 22 23 24 25 26 27 28 29 30 31 32 33 34 35 36 37 38 39 40 41 42 43 44 45 46 47 48 49 50
000
ASUS43 KLOT 252308
RWRIL

ILLINOIS REGIONAL WEATHER ROUNDUP
NATIONAL WEATHER SERVICE CHICAGO/ROMEOVILLE IL
600 PM CDT WED MAY 25 2016

NOTE: "FAIR" INDICATES FEW OR NO CLOUDS BELOW 12,000 FEET WITH NO
SIGNIFICANT WEATHER AND/OR OBSTRUCTIONS TO VISIBILITY.

* THESE STATIONS ARE NOT UNDER NWS QUALITY CONTROL. THEY ALSO MAY NOT
  REPORT WEATHER SUCH AS PRECIPITATION OR FOG.

ILZ001-002-007-009-015-016-024-260000-
NORTHWEST ILLINOIS

CITY           SKY/WX    TMP DP  RH WIND       PRES   REMARKS
MOLINE         CLOUDY    84  58  40 SW9       29.84F HX  83
STERLING*      PTSUNNY   84  64  50 SW14G21   29.84F HX  85
SAVANNA*       MOSUNNY   84  58  40 SW15      29.84S HX  84
$$

ILZ003-004-008-010-011-017-018-260000-
NORTH CENTRAL ILLINOIS

CITY           SKY/WX    TMP DP  RH WIND       PRES   REMARKS
ROCKFORD       PTSUNNY   75  64  68 SE13      29.87S
FREEPORT*      PTSUNNY   79  66  64 S8        29.86S HX  81
ROCHELLE*      CLOUDY    71  66  83 E8        29.87F
DE KALB*       TSTM      69  64  83 NW3       29.92R
$$

ILZ005-006-012>014-019>023-260000-
NORTHEAST ILLINOIS

CITY           SKY/WX    TMP DP  RH WIND       PRES   REMARKS
CHICAGO-OHARE  TSTM      68  65  90 S7        29.90S
CHICAGO-MIDWAY TSTM      70  63  78 N12G37    29.91R
AURORA         TSTM      67  65  93 N5        29.91R VSB 1/4
LANSING*       LGT RAIN  72  67  85 S3        29.89R
JOLIET*        CLOUDY    72  66  82 N7G14     29.89R
WAUKEGAN       RAIN      67  64  90 CALM      29.91R FOG
DUPAGE AIRPORT TSTM      68  64  87 S7        29.92R FOG
KANKAKEE*      SUNNY    N/A N/A N/A S14G24    29.89F
WHEELING       TSTM      71  67  87 S7        29.94R FOG
MORRIS*        CLOUDY    84  64  49 SW21      29.86R HX  85
ROMEOVILLE*    CLOUDY    69  62  78 N17G24    29.89R
NORTHERLY ISL    N/A     67  63  87 W21         N/A
NORTHERLY ISL    N/A     67  63  87 W21         N/A
$$

LMZ740>746-260000-
SOUTHERN LAKE MICHIGAN

STATION/POSITION SKY/WX   TEMP    WIND        PRES    VSBY  WAVE
                          AIR SEA DIR/SP/G                  HT/PER
                          (F)     (DEG/KT/KT) (MB)    (MI)  (FT/S)
SOUTHERN BUOY              58 53   90/  8/  8 1012.0F         0
WILMETTE HARBOR            67 57  280/ 14/ 19   N/A           1/ 2
HARRISON CRIB              68      90/ 19/ 20   N/A
BURNHAM HARBOR             66     280/  3/ 27   N/A
CALUMET HARBOR                     70/ 10/ 12 1011.3F
BURNS HARBOR               87     190/ 12/ 17 1012.5F
MICHIGAN CITY              81     170/  5/  8   N/A
MICHIGAN CITY 6N           68 61  100/  2/  4   N/A           1
ST. JOSEPH                 74 62  140/  6/  8   N/A           1
$$

ILZ025>027-034>036-040-047-049-050-058-095>099-260000-
WEST-CENTRAL ILLINOIS

CITY           SKY/WX    TMP DP  RH WIND       PRES   REMARKS
QUINCY         MOSUNNY   82  62  50 SW13      29.87F HX  83
GALESBURG*     SUNNY     82  65  56 SW8       29.86F HX  84
MACOMB*        PTSUNNY   83  64  52 S10       29.88S HX  85
JACKSONVILLE*  SUNNY     82  65  56 S15G21    29.90R HX  83
PITTSFIELD*    SUNNY     81  66  61 S12G18    29.90S HX  83
$$

ILZ028>032-037-038-041>044-048-051>054-059>061-260000-
CENTRAL ILLINOIS

CITY           SKY/WX    TMP DP  RH WIND       PRES   REMARKS
PONTIAC        SUNNY     83  66  57 S17G25    29.88F HX  85
BLOOMINGTON    SUNNY     82  65  56 SW17      29.91F HX  84
DECATUR        CLOUDY    79  64  60 S14       29.91F HX  81
PEORIA         SUNNY     83  64  52 SW16      29.86S HX  84
LACON*         CLOUDY    82  66  57 SW12G20   29.85F HX  84
LINCOLN*       SUNNY     81  67  62 S9G20     29.89S HX  83
SPRINGFIELD    MOSUNNY   82  66  58 S20       29.89F HX  84
TAYLORVILLE    MOSUNNY   79  67  67 S14       29.92S HX  81
$$

ILZ033-039-045-046-055>057-062-063-260000-
EAST-CENTRAL ILLINOIS

CITY           SKY/WX    TMP DP  RH WIND       PRES   REMARKS
CHAMPAIGN      SUNNY     80  61  52 S24       29.91F HX  81
RANTOUL*       MOSUNNY   84  63  49 S15G25    29.91S HX  85
MATTOON        MOSUNNY   76  64  66 S15G24    29.94F
PARIS*         MOSUNNY   80  65  61 S14       29.96F HX  82
$$

ILZ079-100>102-260000-
SOUTHWEST ILLINOIS

CITY           SKY/WX    TMP DP  RH WIND       PRES   REMARKS
BELLEVILLE     MOSUNNY   78  69  73 E8G20     29.94R HX  81
CAHOKIA*       MOSUNNY   82  66  58 S10G18    29.92S HX  84
SPARTA*        CLOUDY    76  67  71 S14G20    29.98S
$$

ILZ064>066-069>071-074>076-080>082-084>086-088>090-092>094-260000-
SOUTH-CENTRAL ILLINOIS

CITY           SKY/WX    TMP DP  RH WIND       PRES   REMARKS
CARBONDALE     CLOUDY    74  67  78 S8        30.00R
CAIRO*         CLOUDY    74  68  82 S9        30.02R
EFFINGHAM*     SUNNY     78  68  71 S10       29.96F HX  80
MARION         PTSUNNY   75  70  83 S9        30.01R
MT. VERNON     CLOUDY    75  66  73 S9        29.98S
CENTRALIA*     CLOUDY    75  70  83 S8        29.96S
SALEM*         PTSUNNY   76  68  76 S7        29.96S
METROPOLIS*    CLOUDY    73  70  91 SE8       30.02R
$$

ILZ067-068-072-073-078-083-087-091-260000-
SOUTHEAST ILLINOIS

CITY           SKY/WX    TMP DP  RH WIND       PRES   REMARKS
LAWRENCEVILLE  CLOUDY    74  64  71 SE15      29.99F
FLORA*         CLOUDY    76  68  77 S12       29.96F
FAIRFIELD*     MOSUNNY   75  68  78 S10       29.96F
HARRISBURG*    CLOUDY    74  69  86 S13       30.00R
ROBINSON*      CLOUDY    71  64  78 S6        29.99F
CARMI*         CLOUDY    75  69  82 S13       29.98F
$$

ABBREVIATIONS USED IN REMARKS
   TC - TEMPERATURE IN CELSIUS
  WCI - WIND CHILL INDEX
   HX - HEAT INDEX
  VSB - VISIBILITY
$$




USA.gov is the U.S. government's official web portal to all federal, state and local government web resources and services.